AirNav   Bose ProFlight Series 2 Headset
 
 1121 users online  

0MI7 Four Star Heliport
Carleton, Michigan, USA

GOING TO CARLETON?


FAA INFORMATION EFFECTIVE 30 JANUARY 2020

Location

FAA Identifier: 0MI7
Lat/Long: 42-02-35.0000N 083-21-34.0000W
42-02.583333N 083-21.566667W
42.0430556,-83.3594444
(estimated)
Elevation: 603 ft. / 184 m (estimated)
From city: 2 miles SE of CARLETON, MI
Time zone: UTC -5 (UTC -4 during Daylight Saving Time)
Zip code: 48117

Heliport Operations

Heliport use: Private use. Permission required prior to landing
Activation date: 02/2004
Control tower: no
ARTCC: CLEVELAND CENTER
FSS: LANSING FLIGHT SERVICE STATION
Attendance: UNATNDD
Wind indicator: yes
Segmented circle: no
Lights: ACTVT VASI, PERMITER LGTS & FLASHING RED LGT 8 CLICKS 122.9
Beacon: ROTG BCN IS RED LGT ON TOP OF BLDG.

Heliport Communications

WX AWOS-3 at TTF (7 nm SW): 119.075 (734-384-0259)
WX AWOS-3 at ONZ (9 nm E): 119.675 (734-692-9686)
WX ASOS at DTW (10 nm N): 133.675 (734-955-5015)
WX ASOS at YIP (14 nm NW): 132.35 (734-961-6843)

Nearby radio navigation aids

VOR radial/distance  VOR name  Freq  Var
CRLr097/4.4CARLETON VOR/DME115.7003W
DXOr184/10.2DETROIT VOR/DME113.4006W
SVMr158/24.3SALEM VORTAC114.3003W
YQGr248/26.7WINDSOR VOR/DME113.8006W
VWVr021/37.6WATERVILLE VOR/DME113.1002W

 
NDB name  Hdg/Dist  Freq  Var  ID
GROSSE ILE256/9.841907WRYS .-. -.-- ...
TECUMSEH095/23.523906WTCU - -.-. ..-
ADRIAN078/33.727806WADG .- -.. --.
PORT CLINTON332/38.442307WPCW .--. -.-. .--

Heliport Services

Runway Information

Helipad H1

Dimensions: 35 x 35 ft. / 11 x 11 m
Surface: concrete
Runway edge lights: PERI
NSTD 3 LIGHT VASI SYSTEM.
Operational restrictions: CIRCULAS HELIPAD.
Traffic pattern: leftleft

Heliport Ownership and Management from official FAA records

Ownership: Privately-owned
Owner: THOMAS JOSEPH SMITH
1015 INDIAN TRAILS RD
CARLETON, MI 48117
Phone 734-654-6420
Manager: THOMAS JOSEPH SMITH
1015 INDIAN TRAILS RD
CARLETON, MI 48117
Phone 734-654-6420

Heliport Operational Statistics

Aircraft based on the field: 1
Helicopters: 1
    

Additional Remarks

A52-H1 30 FT POWERLINE 375 FT W OF PAD RUNNING N & S.
FOR CD CTC DETROIT APCH AT 800-499-8181.

Instrument Procedures

There are no published instrument procedures at 0MI7.

Some nearby airports with instrument procedures:

KTTF - Custer Airport (7 nm SW)
KONZ - Grosse Ile Municipal Airport (9 nm E)
KDTW - Detroit Metropolitan Wayne County Airport (10 nm N)
KYIP - Willow Run Airport (14 nm NW)
1D2 - Canton-Plymouth-Mettetal Airport (19 nm N)
 
Loc | Ops | Rwys | IFR | FBO | Links
Com | Nav | Svcs | Stats | Notes
Area around 0MI7 (Four Star Heliport)
 
Road maps at: MapQuest Bing Google
 
Aerial photo
WARNING: Photo may not be current or correct
Aerial photo of 0MI7 (Four Star Heliport)
Do you have a better or more recent aerial photo of Four Star Heliport that you would like to share? If so, please send us your photo.

 
Sectional chart

 
Airport distance calculator
Flying to Four Star Heliport? Find the distance to fly.

From to 0MI7

Sunrise and sunset
Times for 17-Feb-2020
 Local
(UTC-5)
 Zulu
(UTC)
Morning civil twilight06:5911:59
Sunrise07:2812:28
Sunset18:0723:07
Evening civil twilight18:3623:36

Current date and time
Zulu (UTC)  17-Feb-2020 22:55:40
Local (UTC-5)  17-Feb-2020 17:55:40
 
METAR
KTTF 
7nm S 
172235Z AUTO 05004KT 10SM BKN075 OVC085 00/M05 A3012 RMK AO2 T00021046
KONZ 
10nm E 
172236Z AUTO 08007G14KT 10SM OVC080 00/M03 A3013 RMK AO2 T00001027
KDTW 
11nm N 
172153Z 09008KT 10SM OVC065 00/M04 A3015 RMK AO2 SLP217 VIRGA ALQDS T00001044
KYIP 
14nm NW 
172153Z 09008KT 10SM OVC065 02/M04 A3014 RMK AO2 SLP212 T00171044 $
KARB 
20nm NW 
734-668-7173
172153Z 11008G17KT 10SM OVC070 01/M05 A3012 RMK AO2 SLP212 T00061050
TAF
KDTW 
11nm N 
172047Z 1721/1824 09010KT P6SM BKN070 OVC100 FM180200 11008KT 5SM -SNRA BKN040 OVC060 FM180400 12007KT 2SM -RA BR BKN012 OVC022 FM180700 16006KT 4SM -DZ BR OVC006 FM181100 24011G19KT P6SM OVC014 FM181500 28015G24KT P6SM OVC022
KYIP 
14nm NW 
171120Z 1712/1812 06004KT P6SM BKN100 FM171500 11007KT P6SM FEW020 BKN150 FM172200 13012KT P6SM OVC070 FM180000 13012KT 4SM -RASN BR OVC015 FM180300 14011KT 1 1/2SM -RA BR OVC008 FM180800 20010KT 4SM BR OVC010
NOTAMs
Click for the latest NOTAMs
NOTAMs are issued by the DoD/FAA and will open in a separate window not controlled by AirNav.

 

 
 

Would you like to see your business listed on this page?

 If your business provides an interesting product or service to pilots, flight crews, aircraft, or users of the Four Star Heliport, you should consider listing it here.  To start the listing process, click on the button below
 
Add a business
 

Other Pages about Four Star Heliport

Update a link
 
Copyright © AirNav, LLC. All rights reserved. Privacy Policy  Contact